Location: Heathcote
(40.9845°N, 73.7746°W)
Time: 12:41:25
(UTC+00:00)

Cosmos 2082 - Pass Details

Date: 29 October 2020
Orbit: 832 x 857 km, 71.0° (Epoch: 01 December)

Event Time Altitude Azimuth Distance (km) Brightness Sun altitude
Rises 23:17:56 0° 338° (NNW) 3,435 7.1 -16.4°
Reaches altitude 10° 23:20:25 10° 342° (NNW) 2,497 6.3 -16.8°
Maximum altitude 23:26:08 66° 64° (ENE) 934 3.7 -17.9°
Drops below altitude 10° 23:31:48 10° 147° (SSE) 2,481 5.8 -19.0°
Enters shadow 23:31:52 10° 147° (SSE) 2,505 5.9 -19.0°
